Wind_Speed
16 16 16 16 16 16 16 16 16 17 17 17 18 18 18 18 18 18 18 19 18 17 17 17 17 17 17 17 18 18 19 20 21 21 22 23 22 22 23 23 24 25 25
17 16 15 15 15 14 14 15 15 16 16 17 17 18 18 17 17 17 18 18 18 17 17 17 17 16 16 17 17 17 18 19 19 20 20 21 21 21 21 21 22 23 23
16 15 14 14 14 15 15 15 15 16 17 18 18 17 17 16 16 16 17 17 16 16 16 16 16 16 16 16 16 16 16 17 18 18 17 18 18 18 18 19 19 20 21
15 14 14 14 15 14 15 15 15 16 17 17 17 17 17 16 16 16 16 16 15 15 15 15 15 15 15 15 15 15 15 16 17 16 16 15 16 16 17 17 17 17 18
15 15 15 16 14 14 15 16 16 16 17 17 17 17 17 16 16 15 15 15 15 14 14 14 14 14 14 14 14 15 15 15 15 15 14 14 13 14 14 15 15 15 16
15 15 16 16 15 16 15 16 16 16 17 17 17 17 16 16 15 15 15 15 14 14 13 14 13 13 13 14 14 14 14 14 13 13 12 12 11 12 13 13 13 13 13
15 15 15 16 16 16 16 16 16 17 16 16 16 16 15 15 15 15 15 14 14 13 13 13 13 13 13 13 13 13 13 12 12 12 11 11 10 10 11 11 10 11 12
16 16 17 17 17 17 18 17 17 17 16 16 15 15 15 14 15 15 15 14 14 13 13 13 13 12 12 12 12 12 11 11 10 11 11 11 10 10 9 9 9 10 10
17 17 17 17 17 18 18 18 18 17 17 16 15 15 14 14 15 15 14 13 13 13 13 13 12 11 11 11 11 11 10 10 9 9 10 10 10 9 8 9 9 9 9
18 17 17 18 18 18 19 19 18 17 17 16 15 14 14 14 14 14 13 13 12 12 12 12 11 11 11 11 11 10 10 9 9 8 9 10 10 9 9 8 8 9 9
19 19 18 18 19 19 19 18 18 18 17 16 15 14 13 13 13 13 12 11 12 12 11 11 11 11 11 10 10 10 9 8 8 8 8 8 9 9 8 8 8 8 8
20 20 20 19 19 20 19 19 18 18 17 16 15 14 13 12 12 13 12 12 12 12 11 11 10 10 10 10 9 9 8 8 8 8 8 7 8 8 8 8 8 8 8
21 21 21 21 20 20 19 19 19 18 17 17 16 14 12 12 13 13 12 12 12 11 11 11 10 10 10 10 9 8 7 7 7 7 7 7 7 7 8 8 8 8 8
23 23 23 23 22 21 21 20 20 19 17 16 15 14 13 13 13 13 12 12 11 11 11 11 10 9 9 9 8 7 6 6 7 8 8 7 7 8 8 8 8 8 8
23 23 24 24 23 22 21 20 20 18 17 16 16 16 15 14 14 14 13 13 12 11 11 11 10 9 9 8 8 7 7 7 8 8 8 8 8 8 8 8 8 8 9
23 23 23 23 22 21 21 20 20 19 18 18 17 17 16 15 15 14 14 14 13 12 11 11 10 9 9 8 8 8 7 8 8 7 8 8 8 8 9 9 8 9 10
23 23 23 22 21 20 20 21 20 19 19 18 18 18 16 16 16 15 14 14 13 13 12 11 11 11 10 9 9 9 9 8 8 9 9 9 9 9 9 9 10 10 10
23 23 22 21 20 20 20 20 20 19 19 18 18 18 17 17 17 16 15 14 14 14 13 12 12 12 11 10 10 10 10 9 10 10 10 10 10 10 10 10 10 10 11
23 22 22 22 22 21 20 20 19 19 18 18 18 17 17 17 17 16 15 15 15 14 13 13 13 12 11 11 10 11 11 11 10 10 11 11 11 11 11 11 11 11 11
23 23 23 23 22 22 21 21 21 20 19 19 19 18 17 17 17 16 16 15 15 15 14 13 13 12 12 11 12 12 12 11 11 11 11 12 12 12 12 12 12 13 13
23 23 22 22 22 22 22 22 21 20 19 20 20 20 18 18 17 17 17 16 16 15 15 15 14 13 12 12 12 11 11 11 12 12 12 13 14 13 13 13 13 14 14
22 23 22 22 22 22 22 22 22 21 20 20 21 21 20 20 19 18 18 17 17 16 16 15 14 13 13 13 13 13 13 13 13 13 13 14 14 14 14 14 15 15 15
22 22 22 22 22 22 22 22 22 22 21 21 21 21 21 20 20 20 19 19 18 17 16 15 15 14 14 14 14 14 14 14 14 14 14 14 15 16 16 16 16 16 16
22 22 22 22 22 21 22 22 22 22 22 21 20 19 19 19 19 19 18 18 18 18 17 16 15 15 14 14 14 14 14 14 15 15 15 15 15 15 15 16 16 16 16
22 22 22 22 23 22 22 21 22 22 22 21 20 19 19 19 19 19 18 17 17 17 17 16 16 15 15 15 15 15 15 15 15 15 15 15 15 15 15 15 15 16 16
21 22 23 23 23 23 22 21 21 21 21 21 20 20 20 20 19 19 18 18 17 16 16 16 17 16 16 16 16 16 16 16 15 15 15 15 15 15 15 15 16 16 16
Wind_Direction
297 296 299 304 304 300 298 299 302 304 305 304 303 305 304 302 299 295 294 292 290 289 288 289 289 286 285 284 282 279 277 278 277 274 274 273 271 269 268 267 263 260 259
297 297 299 303 306 305 302 302 304 306 307 308 309 308 307 304 302 300 297 296 293 290 288 287 288 288 286 285 283 281 282 282 281 278 277 275 273 272 270 269 265 261 257
299 300 301 302 307 309 307 306 305 307 308 309 310 311 311 310 308 306 303 301 298 293 289 286 284 285 287 286 285 284 286 286 284 283 281 275 273 275 273 269 266 261 255
297 300 304 307 308 312 313 308 305 309 310 310 310 312 312 312 311 308 308 309 305 299 293 288 287 288 286 286 285 286 290 289 287 284 285 277 274 277 276 270 268 262 255
295 296 299 304 308 311 312 311 309 309 310 308 309 312 312 311 309 309 309 311 309 303 298 295 292 290 290 288 287 288 290 291 292 287 290 282 276 279 279 273 269 259 254
292 294 294 298 302 306 308 308 308 309 311 311 309 310 313 314 312 311 311 313 311 305 299 296 295 293 292 291 290 290 290 291 291 292 291 286 279 282 279 273 264 257 253
289 291 295 296 298 302 304 305 306 308 312 312 312 314 317 320 319 315 314 312 308 304 302 299 298 298 295 295 295 295 292 292 291 293 294 290 284 283 281 271 262 261 258
291 291 294 295 297 299 301 302 303 303 307 308 310 313 315 316 318 317 315 313 311 307 304 301 299 298 296 296 297 296 295 293 291 290 291 291 288 286 274 265 263 264 259
287 289 292 293 294 297 298 297 298 298 300 303 305 310 312 313 317 320 319 317 313 310 305 301 301 300 299 298 296 295 292 291 287 289 292 292 292 290 277 268 268 267 264
285 288 290 292 293 294 297 297 296 296 296 297 300 304 309 313 318 321 323 324 320 320 317 310 305 305 307 305 299 295 289 289 288 289 290 292 293 289 279 272 268 269 267
282 285 287 289 291 293 295 298 298 294 292 293 297 300 304 309 314 320 325 329 331 332 331 327 320 314 313 309 303 296 287 284 286 283 285 288 293 288 280 279 276 272 268
279 283 286 288 288 290 293 296 296 296 293 290 292 295 297 302 307 312 315 321 325 327 328 328 327 327 323 315 307 296 287 285 286 283 283 285 290 290 285 287 282 281 279
276 279 283 284 285 288 290 292 293 295 295 291 290 289 290 295 299 302 306 313 318 321 321 322 323 324 326 323 315 303 293 287 285 285 289 290 289 288 285 285 284 284 281
275 277 280 281 282 285 288 288 289 293 293 290 287 286 288 292 298 300 302 309 314 316 316 315 316 319 324 327 320 308 296 287 284 281 285 284 280 281 281 278 276 281 283
274 276 277 278 279 282 284 286 288 289 286 284 284 284 285 290 294 297 298 303 308 313 313 313 314 315 319 323 324 312 296 284 281 279 281 284 284 281 279 278 276 279 283
274 276 277 278 279 279 281 284 287 285 284 284 281 281 281 286 290 292 295 299 302 306 307 309 309 311 316 317 320 317 300 289 282 282 286 289 291 288 287 284 282 280 282
273 274 274 273 275 279 281 282 282 281 280 281 280 277 277 282 287 288 290 292 296 299 300 299 300 302 306 312 311 311 303 291 281 278 280 283 284 289 293 289 285 283 283
271 271 270 270 272 275 277 278 278 277 277 277 277 274 274 279 282 284 285 286 289 293 295 295 295 293 295 301 304 303 303 295 283 278 277 280 284 287 287 286 285 284 284
266 265 266 269 271 273 276 275 275 274 273 273 274 275 276 276 276 279 282 283 285 288 289 291 292 289 286 289 292 295 296 295 287 280 278 282 284 285 285 285 283 281 282
263 263 266 268 269 270 273 275 275 273 270 271 273 273 273 274 274 275 277 278 281 282 283 285 285 285 281 282 284 286 287 289 291 285 278 278 281 283 284 282 282 284 284
264 264 265 264 266 268 270 272 272 272 271 271 270 269 270 270 271 271 271 273 277 280 280 280 280 278 277 279 281 282 285 287 287 287 281 278 279 280 282 283 283 282 282
264 263 263 264 265 267 270 271 271 271 271 270 268 268 268 267 267 267 269 271 273 275 276 277 274 273 274 277 280 280 281 284 286 286 285 281 278 276 277 280 281 282 284
266 264 264 265 267 268 269 270 270 270 269 269 269 268 266 266 266 265 266 269 270 270 271 271 269 270 272 276 278 279 279 281 284 284 284 284 282 277 276 278 280 281 282
268 267 266 265 267 269 269 270 272 272 270 268 267 266 267 268 267 266 268 268 269 270 269 268 268 270 273 275 278 278 280 283 284 282 282 283 284 281 277 277 279 280 281
268 268 268 267 267 269 269 268 267 268 267 265 266 266 266 266 266 265 266 268 270 271 269 267 267 267 270 272 274 278 281 284 285 283 282 282 282 280 277 276 277 278 280
270 269 269 269 269 269 269 268 266 265 263 263 264 264 264 265 264 264 265 265 266 268 268 267 266 266 267 269 273 276 279 281 282 284 284 284 282 280 279 277 276 276 279
Height
5801 5798 5796 5794 5792 5789 5787 5785 5782 5780 5777 5774 5771 5768 5765 5762 5760 5758 5756 5754 5752 5750 5749 5748 5746 5745 5744 5743 5742 5740 5739 5738 5737 5736 5735 5734 5733 5732 5732 5731 5731 5731 5732
5797 5795 5793 5790 5788 5786 5783 5781 5778 5776 5773 5770 5766 5763 5760 5758 5755 5753 5751 5748 5746 5745 5743 5742 5741 5740 5739 5737 5736 5735 5733 5732 5730 5729 5728 5727 5726 5725 5725 5724 5724 5724 5725
5793 5791 5789 5787 5785 5782 5780 5777 5774 5772 5769 5766 5763 5759 5756 5754 5751 5748 5746 5743 5741 5739 5738 5737 5736 5735 5734 5732 5731 5729 5728 5726 5724 5723 5721 5720 5720 5719 5719 5718 5718 5718 5718
5789 5787 5786 5784 5782 5779 5776 5773 5771 5768 5765 5762 5758 5755 5753 5750 5747 5744 5741 5739 5736 5734 5733 5732 5731 5730 5729 5727 5726 5725 5723 5721 5719 5717 5716 5715 5715 5714 5713 5713 5713 5712 5713
5786 5784 5782 5780 5778 5775 5773 5770 5767 5764 5761 5758 5755 5752 5749 5746 5743 5740 5738 5735 5732 5730 5729 5728 5727 5726 5724 5723 5722 5720 5719 5717 5715 5713 5712 5711 5710 5709 5709 5708 5708 5708 5708
5782 5780 5778 5776 5774 5772 5770 5767 5764 5761 5758 5754 5751 5748 5745 5742 5739 5737 5734 5732 5729 5727 5725 5724 5723 5721 5720 5718 5717 5715 5714 5713 5712 5710 5709 5707 5707 5706 5705 5704 5704 5704 5705
5778 5776 5774 5773 5771 5768 5766 5763 5760 5757 5754 5751 5748 5745 5742 5739 5736 5733 5731 5728 5726 5724 5722 5720 5719 5717 5716 5714 5712 5711 5710 5709 5708 5707 5706 5705 5704 5703 5701 5700 5701 5701 5701
5774 5772 5770 5768 5767 5765 5762 5759 5756 5754 5751 5748 5745 5742 5739 5736 5733 5730 5727 5724 5722 5720 5718 5717 5715 5713 5712 5710 5709 5708 5706 5706 5705 5704 5703 5702 5701 5700 5698 5698 5698 5698 5698
5769 5768 5766 5764 5762 5760 5758 5755 5752 5750 5747 5745 5742 5739 5736 5733 5730 5727 5724 5721 5719 5717 5715 5713 5711 5710 5708 5706 5705 5704 5703 5702 5702 5701 5700 5700 5699 5698 5697 5696 5696 5696 5696
5764 5763 5761 5759 5758 5756 5753 5751 5748 5746 5743 5741 5738 5735 5733 5730 5727 5725 5722 5719 5717 5715 5712 5710 5708 5707 5705 5703 5702 5701 5700 5700 5699 5699 5698 5697 5697 5696 5695 5694 5694 5694 5693
5758 5757 5756 5754 5753 5751 5749 5746 5744 5741 5739 5736 5734 5732 5729 5727 5725 5722 5720 5717 5715 5713 5710 5708 5706 5704 5702 5700 5699 5698 5697 5697 5696 5696 5696 5695 5695 5694 5693 5693 5692 5692 5692
5753 5752 5750 5749 5747 5746 5744 5742 5739 5737 5734 5732 5730 5728 5726 5724 5723 5720 5718 5715 5713 5711 5709 5707 5704 5702 5700 5698 5696 5695 5695 5694 5694 5693 5693 5693 5693 5692 5691 5691 5691 5690 5690
5747 5746 5744 5743 5742 5740 5738 5736 5734 5732 5730 5728 5726 5724 5723 5721 5719 5717 5715 5713 5711 5709 5707 5704 5702 5700 5698 5696 5694 5693 5692 5692 5691 5691 5691 5691 5691 5690 5690 5689 5689 5688 5688
5740 5739 5738 5737 5736 5734 5733 5731 5729 5727 5725 5723 5722 5721 5719 5718 5716 5714 5712 5710 5708 5706 5704 5702 5700 5698 5696 5694 5692 5690 5690 5690 5689 5689 5689 5689 5688 5688 5688 5687 5687 5686 5686
5733 5732 5731 5730 5729 5728 5726 5725 5723 5722 5720 5719 5718 5716 5715 5714 5712 5711 5709 5707 5706 5704 5701 5700 5698 5696 5694 5692 5691 5689 5688 5688 5687 5687 5687 5686 5686 5686 5685 5685 5684 5684 5684
5726 5725 5724 5723 5722 5721 5720 5719 5717 5716 5715 5714 5713 5712 5711 5710 5708 5707 5706 5704 5703 5701 5699 5697 5696 5694 5692 5691 5689 5687 5686 5685 5685 5685 5684 5684 5683 5683 5682 5682 5682 5681 5681
5718 5718 5717 5716 5716 5714 5713 5712 5711 5711 5709 5709 5708 5707 5706 5705 5704 5703 5702 5700 5699 5697 5696 5694 5693 5692 5690 5688 5687 5685 5684 5683 5683 5682 5682 5681 5681 5680 5679 5679 5679 5679 5678
5710 5710 5710 5709 5709 5708 5706 5705 5704 5704 5703 5703 5702 5701 5701 5700 5699 5698 5696 5696 5695 5693 5692 5690 5689 5688 5687 5686 5685 5683 5682 5681 5680 5679 5679 5678 5678 5677 5677 5676 5676 5675 5675
5702 5702 5702 5702 5702 5701 5700 5699 5698 5697 5697 5697 5696 5696 5695 5694 5693 5692 5691 5690 5690 5688 5687 5686 5685 5685 5684 5683 5682 5681 5679 5678 5677 5676 5676 5675 5675 5674 5673 5673 5672 5672 5672
5695 5695 5695 5694 5694 5694 5693 5692 5691 5691 5691 5690 5690 5690 5689 5688 5688 5687 5687 5686 5685 5684 5683 5682 5682 5681 5680 5679 5678 5677 5676 5675 5674 5673 5672 5672 5671 5670 5670 5669 5669 5668 5668
5687 5687 5687 5687 5687 5686 5686 5686 5685 5684 5684 5684 5684 5684 5683 5682 5682 5682 5681 5681 5680 5679 5678 5678 5677 5677 5676 5675 5675 5674 5673 5671 5670 5669 5668 5667 5667 5666 5666 5665 5665 5664 5664
5679 5679 5679 5679 5679 5679 5679 5678 5678 5678 5677 5677 5677 5677 5676 5676 5676 5676 5676 5675 5675 5674 5674 5673 5673 5672 5671 5671 5670 5669 5668 5667 5667 5665 5664 5663 5662 5662 5661 5661 5660 5660 5659
5671 5671 5671 5671 5671 5671 5671 5671 5671 5670 5670 5670 5670 5670 5669 5669 5670 5670 5670 5669 5669 5669 5668 5668 5668 5667 5667 5666 5665 5665 5664 5663 5662 5661 5659 5658 5657 5657 5656 5656 5656 5655 5655
5664 5664 5664 5664 5663 5663 5663 5663 5663 5663 5663 5663 5662 5663 5663 5663 5663 5664 5664 5664 5663 5663 5663 5663 5663 5662 5662 5661 5660 5660 5659 5658 5657 5655 5654 5653 5652 5651 5651 5651 5650 5650 5650
5656 5656 5656 5656 5656 5655 5655 5655 5655 5655 5655 5655 5655 5656 5656 5656 5657 5658 5658 5657 5657 5657 5657 5657 5657 5657 5657 5656 5655 5655 5654 5653 5652 5651 5649 5648 5647 5646 5646 5646 5645 5645 5645
5648 5648 5648 5648 5648 5648 5648 5648 5648 5648 5648 5648 5648 5649 5649 5650 5650 5651 5651 5651 5651 5651 5651 5651 5651 5651 5651 5650 5650 5650 5649 5649 5647 5646 5644 5643 5643 5642 5641 5640 5640 5640 5639